9D9-WX Weather Reports


time (UTC)temp
C
wind
direction
speed
KPH
gust
KPH
rain 1hr
cm
rain 24hr
cm
rain mn
cm
humidity
%
barometer
mb
20260509064511 7 186 12.9 0.0 0.00 0.00 0.00 68 977.2
20260509063024 7 179 12.9 0.0 0.00 0.00 0.00 62 976.9
20260509061510 7 174 14.5 0.0 0.00 0.00 0.00 62 976.9
20260509060036 6 164 12.9 0.0 0.00 0.00 0.00 62 976.9
20260509054511 7 161 11.3 0.0 0.00 0.00 0.00 52 978.3
20260509053023 7 167 11.3 0.0 0.00 0.00 0.00 53 977.8
20260509051509 7 165 11.3 0.0 0.00 0.00 0.00 53 977.7
20260509050035 7 171 9.7 0.0 0.00 0.00 0.00 53 977.7
20260509044510 7 174 9.7 0.0 0.00 0.00 0.00 47 978.7
20260509043024 7 167 9.7 0.0 0.00 0.00 0.00 47 977.6
20260509041509 7 170 9.7 0.0 0.00 0.00 0.00 47 977.7
20260509040034 8 178 8.0 0.0 0.00 0.00 0.00 47 977.7
20260509034510 8 178 9.7 0.0 0.00 0.00 0.00 41 978.4
20260509033023 8 178 9.7 0.0 0.00 0.00 0.00 40 979.1
20260509031509 8 176 9.7 0.0 0.00 0.00 0.00 40 979.1
20260509030033 9 174 9.7 0.0 0.00 0.00 0.00 40 979.1
20260509024509 10 184 9.7 0.0 0.00 0.00 0.00 29 979.2
20260509023026 10 192 9.7 0.0 0.00 0.00 0.00 37 979.4
20260509021509 10 206 8.0 0.0 0.00 0.00 0.00 37 979.4
20260509020032 10 219 6.4 0.0 0.00 0.00 0.00 37 979.4
20260509014509 10 221 6.4 0.0 0.00 0.00 0.00 39 979.0
20260509013021 11 229 6.4 0.0 0.00 0.00 0.00 39 979.0
20260509011509 11 247 6.4 0.0 0.00 0.00 0.00 39 979.0
20260509010029 12 255 6.4 0.0 0.00 0.00 0.00 39 979.0
20260509004508 12 267 6.4 0.0 0.00 0.00 0.00 31 978.8
20260509003026 12 265 6.4 0.0 0.00 0.00 0.00 31 980.1
20260509001508 13 273 6.4 0.0 0.00 0.00 0.00 31 980.1
20260509000032 14 272 8.0 0.0 0.00 0.00 0.00 31 980.1
20260508234508 15 272 11.3 0.0 0.00 0.00 0.00 25 979.3
20260508233027 15 270 12.9 0.0 0.00 0.00 0.00 24 979.8
20260508231510 15 269 14.5 0.0 0.00 0.00 0.00 24 979.8
20260508230031 15 271 16.1 0.0 0.00 0.00 0.00 24 979.8
20260508224510 16 274 16.1 0.0 0.00 0.00 0.00 23 979.7
20260508223028 16 273 17.7 0.0 0.00 0.00 0.00 21 980.7
20260508221511 16 273 17.7 0.0 0.00 0.00 0.00 21 980.7
20260508220028 16 273 19.3 0.0 0.00 0.00 0.00 21 980.7
20260508214511 16 272 19.3 0.0 0.00 0.00 0.00 21 981.1
20260508213027 16 266 19.3 0.0 0.00 0.00 0.00 23 980.6
20260508211510 16 256 19.3 0.0 0.00 0.00 0.00 23 980.7
20260508210033 16 254 19.3 0.0 0.00 0.00 0.00 23 980.7
20260508204510 16 252 19.3 0.0 0.00 0.00 0.00 29 980.9
20260508203028 17 250 20.9 0.0 0.00 0.00 0.00 27 980.6
20260508201510 17 242 16.1 0.0 0.00 0.00 0.00 27 980.6
20260508200028 17 249 16.1 0.0 0.00 0.00 0.00 20 980.2
20260508194510 17 252 16.1 0.0 0.00 0.00 0.00 25 980.9
20260508193022 17 252 17.7 0.0 0.00 0.00 0.00 25 980.9
20260508191509 17 248 14.5 0.0 0.00 0.00 0.00 25 981.0
20260508190031 17 254 16.1 0.0 0.00 0.00 0.00 25 981.0
20260508184510 16 252 16.1 0.0 0.00 0.00 0.00 29 981.5
20260508183028 16 244 17.7 0.0 0.00 0.00 0.00 31 981.1
20260508181510 16 243 16.1 0.0 0.00 0.00 0.00 31 981.1
20260508180032 16 246 16.1 0.0 0.00 0.00 0.00 31 981.1
20260508174510 16 245 17.7 0.0 0.00 0.00 0.00 32 982.1
20260508173028 16 248 16.1 0.0 0.00 0.00 0.00 32 982.1
20260508171510 15 244 16.1 0.0 0.00 0.00 0.00 32 982.1
20260508170032 15 250 16.1 0.0 0.00 0.00 0.00 31 982.1
20260508164510 15 249 16.1 0.0 0.00 0.00 0.00 33 982.2
20260508163027 15 249 14.5 0.0 0.00 0.00 0.00 33 982.5
20260508161510 14 247 12.9 0.0 0.00 0.00 0.00 33 982.5
20260508160033 13 244 12.9 0.0 0.00 0.00 0.00 33 982.5
20260508154510 13 239 11.3 0.0 0.00 0.00 0.00 44 983.4
20260508153029 12 219 9.7 0.0 0.00 0.00 0.00 47 982.5
20260508151511 12 212 8.0 0.0 0.00 0.00 0.00 47 982.5
20260508150032 11 213 8.0 0.0 0.00 0.00 0.00 47 982.5
20260508144511 11 203 6.4 0.0 0.00 0.00 0.00 56 982.6
20260508143024 11 208 8.0 0.0 0.00 0.00 0.00 54 982.7
20260508141511 10 201 8.0 0.0 0.00 0.00 0.00 54 982.7
20260508140033 10 195 6.4 0.0 0.00 0.00 0.00 61 982.6
20260508134510 10 194 6.4 0.0 0.00 0.00 0.00 68 982.6
20260508133023 8 188 9.7 0.0 0.00 0.00 0.00 68 982.6
20260508131511 8 188 9.7 0.0 0.00 0.00 0.00 68 982.6
20260508130034 7 189 8.0 0.0 0.00 0.00 0.00 68 982.6
20260508124510 6 187 8.0 0.0 0.00 0.00 0.00 85 981.6
20260508123026 6 192 8.0 0.0 0.00 0.00 0.00 84 982.3
20260508121510 5 186 6.4 0.0 0.00 0.00 0.00 84 982.3
20260508120037 4 176 4.8 0.0 0.00 0.00 0.00 84 982.3
20260508114510 3 180 4.8 0.0 0.00 0.00 0.00 85 981.8
20260508113030 2 176 3.2 0.0 0.00 0.00 0.00 83 982.5
20260508111510 2 159 4.8 0.0 0.00 0.00 0.00 83 982.5
20260508110028 2 163 6.4 0.0 0.00 0.00 0.00 83 982.5
20260508104513 2 163 6.4 0.0 0.00 0.00 0.00 80 981.5
20260508103029 2 161 6.4 0.0 0.00 0.00 0.00 78 982.5
20260508101513 2 159 4.8 0.0 0.00 0.00 0.00 78 982.6
20260508100028 2 158 4.8 0.0 0.00 0.00 0.00 78 982.6
20260508094512 3 157 4.8 0.0 0.00 0.00 0.00 75 981.8
20260508093024 3 153 3.2 0.0 0.00 0.00 0.00 75 982.6
20260508091513 3 189 3.2 0.0 0.00 0.00 0.00 75 982.6
20260508090032 3 204 3.2 0.0 0.00 0.00 0.00 75 982.6
20260508084512 3 214 4.8 0.0 0.00 0.00 0.00 73 982.0
20260508083029 3 201 6.4 0.0 0.00 0.00 0.00 76 981.9
20260508081512 3 189 6.4 0.0 0.00 0.00 0.00 76 981.9
20260508080034 3 196 4.8 0.0 0.00 0.00 0.00 76 981.9
20260508074512 3 214 4.8 0.0 0.00 0.00 0.00 84 982.8
20260508073029 4 220 4.8 0.0 0.00 0.00 0.00 84 982.8
20260508071512 4 199 6.4 0.0 0.00 0.00 0.00 84 982.8
20260508070035 4 210 6.4 0.0 0.00 0.00 0.00 84 982.8